[[{"header":{"parameterUnit":"m.s-1","parameterCategory":2,"la1":30.2991,"la2":30.254,"lo1":-89.0895,"lo2":-89.0444,"dy":0.0017,"dx":0.0017,"nx":28,"ny":28,"refTime":"2025-03-17T03:00:00:Z","depth":"0","parameterNumber":2,"parameterNumberName":"U-component_of_CURRENTS"},"data":[0,0,0,0,0,0,0,0,0,0,0,0,0,0,0,0,0,0,0,0,0,0,0,0,0,0,0,0,0,0,0,0,0,0,0,0,0,0,0,0,0,0,0,0,0,0,0,0,0,0,0,0,0,0,0,0,0,0,-0.2103,-0.2104,0,-0.2162,-0.2162,-0.2163,-0.213,-0.2129,-0.2127,-0.2126,-0.2096,-0.2097,-0.2097,0,0,0,0,0,0,0,0,0,0,0,0,0,-0.1961,-0.1963,-0.2103,-0.2104,-0.2105,-0.2162,-0.2162,-0.2163,-0.213,-0.2129,-0.2127,-0.2126,-0.2096,-0.2097,-0.2097,0,0,0,0,0,0,0,0,0,0,0,0,0,-0.2018,-0.1964,-0.2102,-0.2098,-0.2099,-0.2162,-0.2162,-0.2163,-0.2131,-0.2129,-0.2127,-0.2125,-0.2096,-0.2096,-0.2097,-0.2139,0,0,-0.2099,-0.2099,0,0,0,0,0,0,0,0,-0.2015,-0.2023,-0.2098,-0.2099,-0.2099,-0.214,-0.2101,-0.2152,-0.2131,-0.2115,-0.2126,-0.2124,-0.2106,-0.2106,-0.2117,-0.2138,-0.2137,-0.2099,-0.2099,-0.21,-0.21,0,0,0,0,0,0,0,-0.2011,-0.202,-0.2122,-0.2099,-0.21,-0.2093,-0.2099,-0.2111,-0.2116,-0.2116,-0.2115,-0.2128,-0.2105,-0.2117,-0.2116,-0.2136,-0.2099,-0.2099,-0.21,-0.21,-0.2271,-0.2275,0,0,0,0,0,0,-0.2014,-0.2017,-0.2121,-0.2124,-0.2055,-0.2098,-0.2104,-0.2126,-0.2118,-0.2117,-0.2129,-0.2126,-0.2117,-0.2116,-0.2115,-0.2211,-0.21,-0.21,-0.21,-0.2266,-0.2272,-0.2276,0,0,0,0,0,0,-0.2011,-0.2023,-0.2118,-0.2074,-0.2086,-0.2102,-0.2127,-0.2128,-0.213,-0.213,-0.2125,-0.2129,-0.2115,-0.2114,-0.2151,-0.2207,-0.21,-0.2101,-0.2262,-0.2268,-0.2274,-0.2373,0,0,0,0,0,0,-0.2006,-0.2021,-0.203,-0.2075,-0.2089,-0.2161,-0.213,-0.2131,-0.2143,-0.2139,-0.2129,-0.2125,-0.2114,-0.2151,-0.2152,-0.2206,-0.2101,-0.2256,-0.2264,-0.2272,-0.2365,-0.2382,-0.2397,0,0,0,0,0,-0.2001,-0.2024,-0.2031,-0.2043,-0.2103,-0.2163,-0.217,-0.2171,-0.2145,-0.2161,-0.2168,-0.2124,-0.2201,-0.2154,-0.2154,-0.221,-0.2252,-0.2262,-0.2271,-0.2357,-0.2379,-0.2397,0,0,0,0,0,0,-0.1958,-0.2025,-0.2032,-0.2072,-0.2117,-0.2159,-0.217,-0.2174,-0.2192,-0.2178,-0.2165,-0.2165,-0.2228,-0.2213,-0.2161,-0.2291,-0.2225,-0.2235,-0.2291,-0.2311,-0.2327,-0.2287,-0.2102,0,0,0,0,0,-0.1959,-0.1993,-0.2056,-0.2083,-0.2109,-0.2139,-0.2157,-0.2166,-0.2194,-0.2197,-0.2203,-0.2223,-0.2274,-0.2281,-0.2315,-0.2368,-0.2287,-0.2413,-0.2429,-0.2442,-0.2417,-0.2373,-0.238,-0.2307,-0.2307,-0.2307,0,0,-0.1945,-0.1988,-0.2003,-0.2077,-0.2105,-0.2159,-0.2144,-0.218,-0.2229,-0.2193,-0.2249,-0.2276,-0.2305,-0.2382,-0.2408,-0.2367,-0.2422,-0.2454,-0.2465,-0.2431,-0.2383,-0.2389,-0.2394,-0.2313,-0.2312,-0.2311,0,0,-0.1945,-0.198,-0.2012,-0.2062,-0.2121,-0.216,-0.2173,-0.2229,-0.2256,-0.2328,-0.2331,-0.2383,-0.2445,-0.2482,-0.2509,-0.2632,-0.2517,-0.2658,-0.2691,-0.2651,-0.2654,-0.2656,-0.2543,-0.2534,-0.2656,-0.2656,-0.2656,0,-0.1924,-0.1977,-0.2028,-0.208,-0.2116,-0.2163,-0.2207,-0.2268,-0.233,-0.2355,-0.2358,-0.2467,-0.2497,-0.2582,-0.2645,-0.2664,-0.2586,-0.2608,-0.2664,-0.2664,-0.2664,-0.2548,-0.2536,-0.2662,-0.2661,-0.2661,-0.266,0,-0.1957,-0.2,-0.2024,-0.2111,-0.2162,-0.2207,-0.2302,-0.2354,-0.2395,-0.2445,-0.2536,-0.2592,-0.2636,-0.2694,-0.2711,-0.2758,-0.2683,-0.269,-0.2595,-0.2676,-0.255,-0.2536,-0.267,-0.2668,-0.2666,-0.2665,0,0,-0.1905,-0.2022,-0.2028,-0.2064,-0.2177,-0.222,-0.2322,-0.2416,-0.245,-0.2551,-0.2574,-0.2736,-0.2732,-0.2764,-0.2795,-0.2787,-0.2747,-0.2741,-0.2736,-0.259,-0.2583,-0.2484,-0.2458,-0.2749,-0.2749,-0.2748,-0.2484,0,-0.1908,-0.1986,-0.2056,-0.2132,-0.2179,-0.2264,-0.2351,-0.2442,-0.2512,-0.2553,-0.2638,-0.269,-0.2774,-0.2778,-0.2798,-0.2755,-0.2718,-0.2812,-0.2557,-0.2548,-0.242,-0.2443,-0.2333,-0.2086,-0.247,-0.2467,-0.2466,0,-0.1915,-0.1968,-0.2032,-0.2134,-0.2161,-0.2217,-0.2315,-0.2398,-0.2494,-0.2543,-0.2607,-0.2642,-0.2688,-0.2721,-0.2678,-0.2723,-0.2658,-0.262,-0.2609,-0.2463,-0.2424,-0.2076,-0.2045,-0.205,-0.2443,-0.2445,-0.2446,0,-0.1841,-0.1949,-0.1988,-0.2028,-0.216,-0.2194,-0.226,-0.2374,-0.244,-0.2496,-0.2501,-0.2572,-0.2551,-0.254,-0.2522,-0.2571,-0.2398,-0.2447,-0.2286,-0.2275,-0.2102,-0.2078,-0.2009,-0.2372,-0.2373,-0.2374,-0.2374,0,-0.1821,-0.1853,-0.195,-0.1976,-0.2019,-0.2127,-0.2178,-0.2259,-0.2344,-0.2362,-0.2466,-0.2452,-0.2503,-0.244,-0.2437,-0.2299,-0.2328,-0.2258,-0.2207,-0.2136,-0.2119,-0.2052,-0.2107,-0.2364,-0.2366,-0.2368,-0.237,0,-0.174,-0.181,-0.1853,-0.1957,-0.1986,-0.2008,-0.2129,-0.216,-0.2255,-0.2251,-0.2258,-0.2319,-0.222,-0.2234,-0.2141,-0.2144,-0.2004,-0.1992,-0.1873,-0.1814,-0.1697,-0.1763,-0.1603,-0.1552,-0.1751,-0.1747,-0.1744,0,-0.1712,-0.1723,-0.18,-0.1811,-0.1852,-0.191,-0.1947,-0.2091,-0.2115,-0.2158,-0.2118,-0.2053,-0.1982,-0.1825,-0.1782,-0.1678,-0.1778,-0.1538,-0.1656,-0.1644,-0.1679,-0.1757,-0.1734,-0.1442,-0.1437,-0.1432,-0.1429,0,-0.1642,-0.1655,-0.1686,-0.1698,-0.1724,-0.1767,-0.1817,-0.1839,-0.1946,-0.1945,-0.1877,-0.1819,-0.1653,-0.1511,-0.1407,-0.1366,-0.1513,-0.144,-0.1469,-0.1456,-0.1491,-0.1431,-0.1627,-0.1389,-0.1393,-0.1396,-0.1398,-0.1399,-0.1571,-0.1553,-0.1574,-0.158,-0.1602,-0.1599,-0.1585,-0.1625,-0.1636,-0.1592,-0.1609,-0.1491,-0.138,-0.1215,-0.1149,-0.1037,-0.1163,-0.1059,-0.1133,-0.1207,-0.1197,-0.1277,-0.0984,-0.0985,-0.0987,-0.0988,-0.0989,0,-0.1497,-0.1472,-0.1459,-0.1456,-0.1423,-0.1478,-0.1478,-0.1432,-0.136,-0.1343,-0.1274,-0.1182,-0.1023,-0.096,-0.0835,-0.0786,-0.0806,-0.0798,-0.0905,-0.0893,-0.0959,-0.099,-0.0636,-0.0636,-0.0636,-0.0636,-0.0636,-0.0636,-0.1462,-0.1407,-0.139,-0.1291,-0.1272,-0.1186,-0.1155,-0.1086,-0.1058,-0.0956,-0.0928,-0.0933,-0.0905,-0.0914,-0.0787,-0.0722,-0.0769,-0.0718,-0.0791,-0.0888,-0.0921,-0.0952,-0.0995,-0.0648,-0.0648,-0.0665,-0.0665,-0.0666]},{"header":{"parameterUnit":"m.s-1","parameterCategory":2,"la1":30.2991,"la2":30.254,"lo1":-89.0895,"lo2":-89.0444,"dy":0.0017,"dx":0.0017,"nx":28,"ny":28,"refTime":"2025-03-17T03:00:00:Z","depth":"0","parameterNumber":3,"parameterNumberName":"V-component_of_CURRENTS"},"data":[0,0,0,0,0,0,0,0,0,0,0,0,0,0,0,0,0,0,0,0,0,0,0,0,0,0,0,0,0,0,0,0,0,0,0,0,0,0,0,0,0,0,0,0,0,0,0,0,0,0,0,0,0,0,0,0,0,0,-0.0428,-0.0428,0,-0.0382,-0.0382,-0.0381,-0.0332,-0.0332,-0.0331,-0.0331,-0.0222,-0.022,-0.0218,0,0,0,0,0,0,0,0,0,0,0,0,0,-0.0425,-0.0426,-0.0428,-0.0428,-0.0427,-0.0382,-0.0382,-0.0381,-0.0332,-0.0332,-0.0331,-0.033,-0.0223,-0.022,-0.0217,0,0,0,0,0,0,0,0,0,0,0,0,0,-0.0406,-0.0426,-0.0428,-0.0399,-0.0396,-0.0383,-0.0382,-0.0381,-0.0332,-0.0332,-0.0331,-0.033,-0.0224,-0.022,-0.0217,-0.021,0,0,-0.0206,-0.0204,0,0,0,0,0,0,0,0,-0.0407,-0.0406,-0.0404,-0.0401,-0.0398,-0.0364,-0.0341,-0.0321,-0.0333,-0.0355,-0.0331,-0.033,-0.0266,-0.0259,-0.025,-0.0205,-0.02,-0.0206,-0.0203,-0.0202,-0.0201,0,0,0,0,0,0,0,-0.0409,-0.0407,-0.0408,-0.0404,-0.04,-0.0372,-0.0368,-0.0337,-0.0312,-0.0353,-0.035,-0.0348,-0.0263,-0.0254,-0.0247,-0.0199,-0.0206,-0.0202,-0.02,-0.0199,-0.0168,-0.0169,0,0,0,0,0,0,-0.0422,-0.0409,-0.041,-0.0407,-0.0403,-0.0373,-0.0369,-0.0374,-0.0314,-0.0305,-0.0348,-0.0346,-0.026,-0.0251,-0.0243,-0.0241,-0.0202,-0.0198,-0.0196,-0.0166,-0.0168,-0.017,0,0,0,0,0,0,-0.0422,-0.0422,-0.0412,-0.0408,-0.0405,-0.0374,-0.038,-0.0374,-0.0363,-0.0312,-0.0301,-0.0345,-0.0259,-0.0248,-0.0226,-0.0236,-0.0197,-0.0194,-0.0165,-0.0167,-0.0169,-0.0231,0,0,0,0,0,0,-0.0422,-0.0423,-0.0427,-0.0409,-0.0405,-0.0415,-0.0381,-0.0373,-0.0364,-0.036,-0.0305,-0.0294,-0.0258,-0.0232,-0.0223,-0.023,-0.0191,-0.0163,-0.0166,-0.0168,-0.0227,-0.0235,-0.0242,0,0,0,0,0,-0.0422,-0.0442,-0.0428,-0.0427,-0.0414,-0.0416,-0.0412,-0.0385,-0.0365,-0.0371,-0.0335,-0.0296,-0.0242,-0.023,-0.0219,-0.0226,-0.0162,-0.0165,-0.0168,-0.0224,-0.0234,-0.0241,0,0,0,0,0,0,-0.0444,-0.0438,-0.0422,-0.0438,-0.043,-0.0409,-0.041,-0.0391,-0.0368,-0.036,-0.0307,-0.0295,-0.0284,-0.0251,-0.024,-0.0228,-0.0198,-0.0199,-0.0244,-0.0253,-0.026,-0.0258,-0.0188,0,0,0,0,0,-0.0451,-0.0461,-0.0449,-0.046,-0.0459,-0.0434,-0.0428,-0.0414,-0.0393,-0.0381,-0.0346,-0.0311,-0.0289,-0.0268,-0.0246,-0.0231,-0.0173,-0.0232,-0.0239,-0.0245,-0.0239,-0.0149,-0.0146,-0.0179,-0.0179,-0.0179,0,0,-0.0462,-0.0459,-0.0464,-0.0464,-0.0453,-0.047,-0.0429,-0.0431,-0.0439,-0.0373,-0.037,-0.0336,-0.0294,-0.0284,-0.0276,-0.0254,-0.0212,-0.0249,-0.0254,-0.0244,-0.0151,-0.0147,-0.0144,-0.0181,-0.0181,-0.0181,0,0,-0.0501,-0.0487,-0.0512,-0.0513,-0.0507,-0.0494,-0.0499,-0.0483,-0.0468,-0.0467,-0.0422,-0.039,-0.0364,-0.0324,-0.0303,-0.0335,-0.0259,-0.0338,-0.0359,-0.0273,-0.0268,-0.0263,-0.0207,-0.0197,-0.0334,-0.0334,-0.0334,0,-0.0513,-0.0542,-0.052,-0.0547,-0.0553,-0.0512,-0.0543,-0.0527,-0.0506,-0.0484,-0.048,-0.041,-0.0381,-0.0337,-0.036,-0.0347,-0.0295,-0.0327,-0.0278,-0.0272,-0.0266,-0.0209,-0.0197,-0.0337,-0.0337,-0.0337,-0.0336,0,-0.0573,-0.0594,-0.0611,-0.063,-0.0633,-0.0652,-0.0633,-0.0622,-0.06,-0.057,-0.0528,-0.0478,-0.0426,-0.0424,-0.0406,-0.0353,-0.0331,-0.03,-0.0249,-0.0265,-0.0206,-0.0192,-0.0342,-0.0341,-0.034,-0.0339,0,0,-0.0609,-0.0647,-0.0652,-0.0674,-0.0678,-0.069,-0.0694,-0.0677,-0.0655,-0.0622,-0.0579,-0.055,-0.0491,-0.0465,-0.0417,-0.0352,-0.0287,-0.0319,-0.0313,-0.0252,-0.0109,-0.0095,-0.0077,-0.0238,-0.0235,-0.0233,-0.0093,0,-0.0662,-0.0731,-0.0732,-0.0789,-0.0821,-0.0787,-0.0794,-0.0764,-0.0718,-0.0663,-0.0578,-0.0528,-0.0514,-0.0476,-0.0412,-0.0316,-0.0249,-0.0328,-0.0113,-0.0107,-0.008,-0.006,-0.0023,0.0106,-0.0079,-0.0076,-0.0074,0,-0.0721,-0.0758,-0.0828,-0.0862,-0.0871,-0.0894,-0.0866,-0.0866,-0.077,-0.0727,-0.0636,-0.0553,-0.046,-0.0437,-0.0267,-0.0317,-0.0225,-0.0148,-0.014,-0.0088,-0.0064,0.0096,0.014,0.0274,-0.0052,-0.0054,-0.0055,0,-0.0759,-0.0823,-0.0879,-0.0894,-0.0925,-0.0936,-0.0942,-0.0879,-0.0855,-0.0742,-0.0683,-0.0557,-0.0479,-0.0345,-0.0212,-0.0225,-0.0013,-0.0001,0.0105,0.0106,0.0199,0.0204,0.0414,0.014,0.014,0.014,0.0139,0,-0.0816,-0.0859,-0.0901,-0.0935,-0.0984,-0.0985,-0.0997,-0.0966,-0.0889,-0.0839,-0.0711,-0.0631,-0.0449,-0.0305,-0.0191,-0.0007,0.0011,0.0113,0.0155,0.0172,0.0173,0.0343,0.0376,0.0145,0.0144,0.0143,0.0142,0,-0.085,-0.0881,-0.0946,-0.0992,-0.1009,-0.1041,-0.1054,-0.1042,-0.0964,-0.0882,-0.0839,-0.0667,-0.049,-0.0303,-0.008,0.0021,0.0286,0.0258,0.0243,0.0281,0.0488,0.0513,0.0751,0.085,0.0405,0.0407,0.0408,0,-0.0876,-0.0914,-0.0986,-0.1024,-0.1051,-0.1095,-0.1118,-0.1086,-0.1059,-0.0908,-0.0863,-0.0661,-0.0524,-0.0202,0.0027,0.0267,0.0368,0.0439,0.0423,0.052,0.0582,0.0598,0.0666,0.0516,0.0518,0.052,0.0521,0,-0.0914,-0.0935,-0.0984,-0.1062,-0.111,-0.1159,-0.1182,-0.117,-0.1102,-0.1022,-0.0894,-0.0768,-0.0437,-0.0155,0.0164,0.0311,0.0541,0.0478,0.0616,0.0716,0.0718,0.0825,0.0373,0.0536,0.0534,0.0533,0.0532,0.0532,-0.0928,-0.0966,-0.1025,-0.1096,-0.1152,-0.1196,-0.1219,-0.1214,-0.1178,-0.1046,-0.0941,-0.0726,-0.0293,0.0158,0.0322,0.0708,0.067,0.0823,0.0854,0.0869,0.0948,0.0499,0.068,0.0679,0.0679,0.0678,0.0678,0,-0.0944,-0.0987,-0.1054,-0.1136,-0.1191,-0.1216,-0.1238,-0.123,-0.119,-0.1061,-0.0939,-0.044,-0.0041,0.0367,0.0886,0.1078,0.1137,0.1177,0.1235,0.1295,0.0951,0.0939,0.114,0.114,0.114,0.114,0.1139,0.1139,-0.0957,-0.1017,-0.1053,-0.1146,-0.1196,-0.1241,-0.1247,-0.122,-0.113,-0.0897,-0.0624,-0.04,0.0211,0.0928,0.1382,0.1432,0.1604,0.1576,0.1672,0.144,0.1409,0.138,0.1381,0.1672,0.1672,0.2033,0.2036,0.2039]}],[{"header":{"parameterUnit":"m.s-1","parameterCategory":2,"la1":30.2991,"la2":30.254,"lo1":-89.0895,"lo2":-89.0444,"dy":0.0017,"dx":0.0017,"nx":28,"ny":28,"refTime":"2025-03-17T03:00:00:Z","depth":"2","parameterNumber":2,"parameterNumberName":"U-component_of_CURRENTS"},"data":[0,0,0,0,0,0,0,0,0,0,0,0,0,0,0,0,0,0,0,0,0,0,0,0,0,0,0,0,0,0,0,0,0,0,0,0,0,0,0,0,0,0,0,0,0,0,0,0,0,0,0,0,0,0,0,0,0,0,-0.1951,-0.1952,0,-0.1997,-0.1997,-0.1998,-0.1974,-0.1973,-0.1972,-0.1971,-0.1958,-0.1959,-0.1959,0,0,0,0,0,0,0,0,0,0,0,0,0,-0.1849,-0.185,-0.1951,-0.1952,-0.1953,-0.1997,-0.1997,-0.1998,-0.1974,-0.1973,-0.1972,-0.1971,-0.1958,-0.1958,-0.1959,0,0,0,0,0,0,0,0,0,0,0,0,0,-0.1891,-0.1851,-0.1951,-0.1948,-0.1949,-0.1997,-0.1997,-0.1998,-0.1975,-0.1973,-0.1972,-0.197,-0.1958,-0.1958,-0.1959,-0.1994,0,0,-0.1962,-0.1962,0,0,0,0,0,0,0,0,-0.1889,-0.1895,-0.1948,-0.1949,-0.1949,-0.1981,-0.1957,-0.1995,-0.1975,-0.1962,-0.1971,-0.197,-0.1963,-0.1963,-0.1972,-0.1993,-0.1993,-0.1962,-0.1962,-0.1963,-0.1963,0,0,0,0,0,0,0,-0.1886,-0.1893,-0.1967,-0.1949,-0.195,-0.1947,-0.1951,-0.1964,-0.1967,-0.1963,-0.1962,-0.1972,-0.1962,-0.1972,-0.1972,-0.1993,-0.1962,-0.1963,-0.1963,-0.1963,-0.2044,-0.2045,0,0,0,0,0,0,-0.1887,-0.189,-0.1965,-0.1969,-0.1918,-0.195,-0.1954,-0.197,-0.1968,-0.1968,-0.1973,-0.1971,-0.1971,-0.1971,-0.1971,-0.2028,-0.1963,-0.1964,-0.1964,-0.2042,-0.2044,-0.2046,0,0,0,0,0,0,-0.1885,-0.1894,-0.1964,-0.1932,-0.1941,-0.1954,-0.1971,-0.1972,-0.1977,-0.1977,-0.1974,-0.1977,-0.197,-0.197,-0.1988,-0.2027,-0.1964,-0.1965,-0.204,-0.2043,-0.2045,-0.2132,0,0,0,0,0,0,-0.1882,-0.1893,-0.1901,-0.1932,-0.1943,-0.1998,-0.1973,-0.1974,-0.1987,-0.1984,-0.198,-0.1977,-0.1969,-0.1987,-0.1989,-0.2027,-0.1965,-0.2038,-0.2041,-0.2044,-0.2127,-0.2137,-0.2146,0,0,0,0,0,-0.1878,-0.1897,-0.1902,-0.1911,-0.1955,-0.1999,-0.2004,-0.2006,-0.1988,-0.2002,-0.1998,-0.1977,-0.2007,-0.1989,-0.1991,-0.203,-0.2037,-0.204,-0.2044,-0.2123,-0.2135,-0.2146,0,0,0,0,0,0,-0.1852,-0.1898,-0.1903,-0.1933,-0.1966,-0.1996,-0.2007,-0.2011,-0.202,-0.201,-0.1999,-0.1998,-0.2031,-0.2017,-0.1997,-0.2061,-0.2019,-0.2023,-0.2079,-0.209,-0.2099,-0.2081,-0.1966,0,0,0,0,0,-0.1854,-0.1878,-0.1924,-0.1945,-0.1964,-0.1986,-0.2001,-0.2008,-0.2024,-0.2025,-0.2027,-0.203,-0.2052,-0.2057,-0.2069,-0.2103,-0.205,-0.2129,-0.2138,-0.2146,-0.2133,-0.2097,-0.2101,-0.2058,-0.2058,-0.2058,0,0,-0.1846,-0.1876,-0.1887,-0.1941,-0.1962,-0.2004,-0.199,-0.2021,-0.2053,-0.2024,-0.2057,-0.2064,-0.2068,-0.211,-0.2124,-0.21,-0.213,-0.2151,-0.2158,-0.2139,-0.2101,-0.2105,-0.2108,-0.206,-0.206,-0.2059,0,0,-0.1849,-0.1875,-0.19,-0.1937,-0.1982,-0.2009,-0.202,-0.206,-0.2073,-0.2114,-0.2106,-0.213,-0.2157,-0.2173,-0.2183,-0.2249,-0.2183,-0.2259,-0.2291,-0.2258,-0.226,-0.2262,-0.2192,-0.2187,-0.2261,-0.2261,-0.2261,0,-0.1837,-0.1877,-0.1913,-0.1954,-0.1982,-0.2015,-0.205,-0.2087,-0.2125,-0.2135,-0.213,-0.217,-0.2188,-0.2229,-0.2266,-0.2271,-0.222,-0.2251,-0.2268,-0.2268,-0.2268,-0.2197,-0.219,-0.2266,-0.2265,-0.2265,-0.2265,0,-0.1866,-0.19,-0.1919,-0.1984,-0.2024,-0.2059,-0.212,-0.2155,-0.2174,-0.2196,-0.2234,-0.2256,-0.2268,-0.23,-0.2311,-0.2337,-0.229,-0.2285,-0.2235,-0.2278,-0.22,-0.2191,-0.2273,-0.2271,-0.227,-0.2268,0,0,-0.1827,-0.192,-0.1924,-0.1952,-0.2039,-0.207,-0.2141,-0.2199,-0.2214,-0.2264,-0.2269,-0.235,-0.2339,-0.235,-0.2365,-0.2358,-0.2341,-0.2331,-0.2327,-0.2253,-0.223,-0.2145,-0.2125,-0.2336,-0.2335,-0.2334,-0.2172,0,-0.1832,-0.1895,-0.195,-0.2008,-0.2046,-0.2109,-0.2164,-0.2221,-0.2256,-0.2274,-0.2306,-0.2322,-0.2366,-0.2365,-0.2375,-0.2348,-0.2322,-0.2383,-0.2206,-0.22,-0.2113,-0.2115,-0.1977,-0.1816,-0.2163,-0.2161,-0.216,0,-0.1839,-0.188,-0.1934,-0.2008,-0.2028,-0.2071,-0.2136,-0.219,-0.2243,-0.2263,-0.2289,-0.2299,-0.2326,-0.2337,-0.23,-0.2332,-0.2288,-0.2259,-0.2252,-0.213,-0.2098,-0.1832,-0.1786,-0.2144,-0.2145,-0.2146,-0.2147,0,-0.1779,-0.1865,-0.1898,-0.193,-0.2027,-0.2053,-0.21,-0.217,-0.2194,-0.2238,-0.2224,-0.2264,-0.2244,-0.2229,-0.2213,-0.2243,-0.2126,-0.215,-0.2019,-0.2011,-0.1835,-0.1812,-0.209,-0.209,-0.2091,-0.2091,-0.2091,0,-0.1763,-0.1787,-0.1867,-0.1887,-0.1912,-0.1999,-0.2023,-0.2079,-0.2123,-0.212,-0.2194,-0.2172,-0.2215,-0.2171,-0.2166,-0.2054,-0.2082,-0.2003,-0.1964,-0.1862,-0.1845,-0.2089,-0.2091,-0.2085,-0.2086,-0.2087,-0.2088,0,-0.1695,-0.1755,-0.1787,-0.1866,-0.1886,-0.1898,-0.1966,-0.1975,-0.2033,-0.202,-0.2025,-0.2072,-0.2015,-0.2022,-0.1968,-0.1954,-0.1883,-0.1831,-0.1696,-0.1645,-0.1795,-0.1804,-0.1654,-0.1649,-0.1646,-0.1643,-0.164,0,-0.1669,-0.168,-0.1739,-0.1745,-0.1776,-0.1811,-0.1828,-0.1915,-0.192,-0.1947,-0.1914,-0.1881,-0.1834,-0.1724,-0.1682,-0.1598,-0.1721,-0.1442,-0.1494,-0.1773,-0.1751,-0.1766,-0.1779,-0.1284,-0.1279,-0.1274,-0.1271,0,-0.1605,-0.1619,-0.1641,-0.1647,-0.166,-0.1679,-0.1707,-0.17,-0.1777,-0.1763,-0.1724,-0.1687,-0.1574,-0.1442,-0.1355,-0.1312,-0.1458,-0.1349,-0.1645,-0.1435,-0.1417,-0.1399,-0.1425,-0.1232,-0.1236,-0.1239,-0.1241,-0.1243,-0.1539,-0.1522,-0.1539,-0.1537,-0.155,-0.1536,-0.1508,-0.1534,-0.152,-0.1483,-0.1517,-0.1418,-0.1376,-0.1168,-0.1079,-0.1024,-0.1137,-0.1125,-0.1142,-0.1162,-0.1168,-0.1146,-0.0909,-0.091,-0.0912,-0.0914,-0.0915,0,-0.1462,-0.1446,-0.1431,-0.142,-0.1384,-0.1429,-0.1414,-0.1368,-0.1305,-0.1294,-0.1245,-0.1086,-0.0955,-0.0924,-0.0757,-0.0718,-0.0743,-0.0707,-0.0755,-0.0792,-0.0825,-0.0819,-0.0463,-0.0462,-0.0461,-0.046,0,0,-0.1424,-0.1373,-0.1358,-0.1265,-0.1249,-0.1163,-0.1131,-0.1079,-0.105,-0.0975,-0.0926,-0.095,-0.0918,-0.0721,-0.0641,-0.0531,-0.067,-0.0497,-0.0855,-0.095,-0.0983,-0.1051,-0.1079,0,0,0,0,0]},{"header":{"parameterUnit":"m.s-1","parameterCategory":2,"la1":30.2991,"la2":30.254,"lo1":-89.0895,"lo2":-89.0444,"dy":0.0017,"dx":0.0017,"nx":28,"ny":28,"refTime":"2025-03-17T03:00:00:Z","depth":"2","parameterNumber":3,"parameterNumberName":"V-component_of_CURRENTS"},"data":[0,0,0,0,0,0,0,0,0,0,0,0,0,0,0,0,0,0,0,0,0,0,0,0,0,0,0,0,0,0,0,0,0,0,0,0,0,0,0,0,0,0,0,0,0,0,0,0,0,0,0,0,0,0,0,0,0,0,-0.0222,-0.0222,0,-0.0175,-0.0175,-0.0174,-0.0135,-0.0135,-0.0134,-0.0134,-0.004,-0.0038,-0.0036,0,0,0,0,0,0,0,0,0,0,0,0,0,-0.0222,-0.0223,-0.0222,-0.0222,-0.0221,-0.0176,-0.0175,-0.0174,-0.0135,-0.0135,-0.0134,-0.0134,-0.0041,-0.0038,-0.0036,0,0,0,0,0,0,0,0,0,0,0,0,0,-0.0203,-0.0223,-0.0222,-0.0197,-0.0195,-0.0176,-0.0175,-0.0174,-0.0135,-0.0135,-0.0134,-0.0134,-0.0042,-0.0039,-0.0035,-0.0024,0,0,-0.0025,-0.0024,0,0,0,0,0,0,0,0,-0.0204,-0.0203,-0.0201,-0.0199,-0.0196,-0.0162,-0.0141,-0.0122,-0.0135,-0.0156,-0.0134,-0.0133,-0.0078,-0.0071,-0.0062,-0.002,-0.0016,-0.0025,-0.0023,-0.0021,-0.002,0,0,0,0,0,0,0,-0.0205,-0.0204,-0.0202,-0.0201,-0.0198,-0.017,-0.0167,-0.0137,-0.0118,-0.0154,-0.0152,-0.0149,-0.0076,-0.0066,-0.006,-0.0014,-0.0025,-0.0022,-0.002,-0.0019,0.006,0.006,0,0,0,0,0,0,-0.0217,-0.0206,-0.0204,-0.0201,-0.02,-0.017,-0.0167,-0.0172,-0.0119,-0.0112,-0.0149,-0.0147,-0.0072,-0.0064,-0.0056,-0.0034,-0.0021,-0.0018,-0.0016,0.006,0.006,0.006,0,0,0,0,0,0,-0.0218,-0.0218,-0.0206,-0.0203,-0.0199,-0.0171,-0.0177,-0.0171,-0.0164,-0.0116,-0.0107,-0.0148,-0.0071,-0.0061,-0.0028,-0.003,-0.0017,-0.0014,0.006,0.006,0.006,0.0008,0,0,0,0,0,0,-0.0218,-0.0219,-0.0225,-0.0204,-0.02,-0.0204,-0.0177,-0.0171,-0.0163,-0.016,-0.0112,-0.0103,-0.007,-0.0033,-0.0025,-0.0025,-0.0011,0.006,0.006,0.006,0.001,0.0006,0.0004,0,0,0,0,0,-0.0218,-0.0238,-0.0226,-0.0225,-0.021,-0.0205,-0.0201,-0.0177,-0.0164,-0.0167,-0.0127,-0.0104,-0.0026,-0.0031,-0.0021,-0.002,0.006,0.006,0.006,0.0011,0.0007,0.0004,0,0,0,0,0,0,-0.0247,-0.0235,-0.0221,-0.0237,-0.0224,-0.0199,-0.0201,-0.0184,-0.0156,-0.0151,-0.0103,-0.0091,-0.0062,-0.0034,-0.0041,0.0004,0.0021,0.0023,-0.002,-0.0024,-0.0027,-0.0048,-0.0008,0,0,0,0,0,-0.0255,-0.0263,-0.0245,-0.0257,-0.0253,-0.0227,-0.0221,-0.0207,-0.0181,-0.0169,-0.0133,-0.0092,-0.0053,-0.0034,0.0001,0.0023,0.0063,0.0031,0.0027,0.0025,0.0014,0.0094,0.0097,0.0061,0.0061,0.0061,0,0,-0.0269,-0.0263,-0.0267,-0.0262,-0.0249,-0.026,-0.0222,-0.0223,-0.0225,-0.0162,-0.0151,-0.0102,-0.0049,-0.0022,-0.0007,0.0001,0.0053,0.0025,0.0022,0.0013,0.0095,0.0098,0.0101,0.0061,0.0061,0.0061,0,0,-0.0309,-0.0296,-0.0318,-0.0313,-0.0303,-0.0287,-0.0291,-0.0268,-0.0249,-0.0232,-0.0181,-0.0132,-0.0089,-0.0041,-0.0013,-0.0011,0.0035,-0.0004,-0.0037,0.0041,0.0044,0.0048,0.0088,0.0096,-0.0006,-0.0006,-0.0006,0,-0.0326,-0.0351,-0.0323,-0.0345,-0.0349,-0.0306,-0.0334,-0.0309,-0.0277,-0.0254,-0.0238,-0.014,-0.0096,-0.0041,-0.0043,-0.0018,0.002,-0.0029,0.0037,0.0041,0.0046,0.0087,0.0096,-0.0009,-0.0008,-0.0008,-0.0008,0,-0.0382,-0.0401,-0.0415,-0.0427,-0.0427,-0.0442,-0.0412,-0.0399,-0.0368,-0.0328,-0.0268,-0.0193,-0.0135,-0.0108,-0.0079,-0.0023,-0.0011,0.0024,0.0043,0.0047,0.0089,0.01,-0.0012,-0.0011,-0.0011,-0.001,0,0,-0.0427,-0.0452,-0.0456,-0.0476,-0.0472,-0.0481,-0.048,-0.0456,-0.0439,-0.0381,-0.0344,-0.0264,-0.0207,-0.0171,-0.0109,-0.0044,0.0018,-0.0009,-0.0003,0.0025,0.0164,0.0171,0.0183,0.0069,0.0071,0.0072,0.0174,0,-0.048,-0.054,-0.0535,-0.0587,-0.0615,-0.0581,-0.0584,-0.055,-0.0494,-0.0442,-0.0337,-0.0276,-0.0234,-0.0195,-0.0125,-0.0011,0.0046,-0.0015,0.0161,0.0165,0.0168,0.0196,0.0182,0.0272,0.0185,0.0187,0.0188,0,-0.0537,-0.0569,-0.0633,-0.0665,-0.0673,-0.0694,-0.0676,-0.067,-0.0577,-0.053,-0.0441,-0.0348,-0.0246,-0.0203,-0.0024,-0.0065,0.0031,0.0119,0.0127,0.0158,0.0193,0.026,0.0295,0.0206,0.0205,0.0203,0.0202,0,-0.0582,-0.0637,-0.069,-0.0704,-0.073,-0.0746,-0.0752,-0.0692,-0.0671,-0.0572,-0.0525,-0.0391,-0.0306,-0.017,-0.0002,-0.0007,0.02,0.0225,0.032,0.032,0.0354,0.0354,0.0351,0.0351,0.035,0.035,0.035,0,-0.0641,-0.0683,-0.0717,-0.0748,-0.0802,-0.0799,-0.082,-0.0796,-0.0734,-0.0688,-0.0571,-0.0489,-0.0288,-0.014,-0.0009,0.0182,0.0198,0.0314,0.0357,0.0333,0.033,0.0311,0.0305,0.0354,0.0353,0.0352,0.0352,0,-0.0682,-0.0706,-0.0768,-0.0811,-0.0828,-0.0864,-0.0884,-0.0879,-0.0821,-0.0753,-0.0721,-0.0544,-0.0354,-0.0163,0.0078,0.0183,0.0358,0.042,0.0355,0.0388,0.0421,0.0411,0.0533,0.0535,0.0536,0.0537,0.0538,0,-0.0709,-0.0746,-0.0813,-0.085,-0.0875,-0.0922,-0.0948,-0.0928,-0.0907,-0.0775,-0.0735,-0.0537,-0.0377,-0.0053,0.0168,0.0393,0.0402,0.0504,0.0499,0.0416,0.0445,0.0433,0.0422,0.0519,0.0519,0.052,0.052,0,-0.0752,-0.0772,-0.082,-0.0896,-0.0944,-0.0993,-0.1018,-0.1013,-0.0955,-0.0877,-0.0729,-0.0589,-0.0277,-0.001,0.0267,0.0399,0.0462,0.052,0.0491,0.0464,0.0408,0.0434,0.0423,0.0524,0.0524,0.0524,0.0524,0.0523,-0.077,-0.0811,-0.0869,-0.0939,-0.0996,-0.1037,-0.1056,-0.1038,-0.0993,-0.0837,-0.0718,-0.0474,-0.0244,0.0178,0.0349,0.0517,0.0524,0.0582,0.0578,0.0575,0.0544,0.0493,0.0617,0.0617,0.0618,0.0618,0.0618,0,-0.0783,-0.0836,-0.0906,-0.0986,-0.1041,-0.1064,-0.1082,-0.1055,-0.0978,-0.0796,-0.0627,-0.0333,-0.0045,0.0183,0.0449,0.0594,0.0582,0.0616,0.0575,0.0571,0.0567,0.0533,0.0606,0.0606,0.0606,0.0606,0,0,-0.0791,-0.0859,-0.0901,-0.1,-0.1052,-0.1093,-0.1093,-0.1024,-0.0896,-0.07,-0.0501,-0.0253,0.0009,0.0193,0.0367,0.0496,0.0493,0.0506,0.0506,0.0434,0.0428,0.0544,0.0488,0,0,0,0,0]}],[{"header":{"parameterUnit":"m.s-1","parameterCategory":2,"la1":30.2991,"la2":30.254,"lo1":-89.0895,"lo2":-89.0444,"dy":0.0017,"dx":0.0017,"nx":28,"ny":28,"refTime":"2025-03-17T03:00:00:Z","depth":"4","parameterNumber":2,"parameterNumberName":"U-component_of_CURRENTS"},"data":[0,0,0,0,0,0,0,0,0,0,0,0,0,0,0,0,0,0,0,0,0,0,0,0,0,0,0,0,0,0,0,0,0,0,0,0,0,0,0,0,0,0,0,0,0,0,0,0,0,0,0,0,0,0,0,0,0,0,-0.1372,-0.1373,0,-0.1428,-0.1428,-0.1429,-0.1452,-0.1452,-0.1452,-0.1452,-0.1506,-0.1508,-0.1509,0,0,0,0,0,0,0,0,0,0,0,0,0,-0.1303,-0.1304,-0.1372,-0.1373,-0.1374,-0.1428,-0.1428,-0.1429,-0.1452,-0.1452,-0.1452,-0.1452,-0.1506,-0.1507,-0.1509,0,0,0,0,0,0,0,0,0,0,0,0,0,-0.1343,-0.1304,-0.1372,-0.1392,-0.1394,-0.1427,-0.1428,-0.1429,-0.1452,-0.1452,-0.1452,-0.1452,-0.1505,-0.1507,-0.1509,-0.1525,0,0,-0.1516,-0.1517,0,0,0,0,0,0,0,0,-0.134,-0.1345,-0.1388,-0.1391,-0.1394,-0.1433,-0.1424,-0.1461,-0.1452,-0.143,-0.1452,-0.1452,-0.1482,-0.1486,-0.1496,-0.1528,-0.153,-0.1516,-0.1518,-0.1519,-0.1519,0,0,0,0,0,0,0,-0.1338,-0.1343,-0.1394,-0.1389,-0.1392,-0.1404,-0.1409,-0.1431,-0.1455,-0.1432,-0.1434,-0.1441,-0.1483,-0.1494,-0.1498,-0.1531,-0.1516,-0.1518,-0.152,-0.1521,-0.1576,-0.1576,0,0,0,0,0,0,-0.1331,-0.134,-0.1392,-0.1395,-0.1367,-0.1405,-0.1411,-0.142,-0.1455,-0.1461,-0.1441,-0.1441,-0.149,-0.1495,-0.15,-0.1559,-0.1519,-0.1521,-0.1522,-0.1575,-0.1576,-0.1576,0,0,0,0,0,0,-0.1329,-0.1335,-0.139,-0.1369,-0.1377,-0.1406,-0.1417,-0.1421,-0.1452,-0.1462,-0.1467,-0.1469,-0.149,-0.1496,-0.153,-0.156,-0.1522,-0.1524,-0.1575,-0.1575,-0.1576,-0.1653,0,0,0,0,0,0,-0.1327,-0.1334,-0.1352,-0.1369,-0.1378,-0.1426,-0.1417,-0.1423,-0.1456,-0.1458,-0.1488,-0.1491,-0.1491,-0.1527,-0.1532,-0.1562,-0.1526,-0.1575,-0.1575,-0.1576,-0.165,-0.1656,-0.166,0,0,0,0,0,-0.1325,-0.1344,-0.1352,-0.1359,-0.1397,-0.1428,-0.1434,-0.1454,-0.1457,-0.148,-0.1491,-0.1492,-0.1531,-0.1529,-0.1536,-0.1567,-0.1575,-0.1575,-0.1576,-0.1648,-0.1655,-0.166,0,0,0,0,0,0,-0.1323,-0.1349,-0.1358,-0.1385,-0.1413,-0.1432,-0.1457,-0.1468,-0.1497,-0.1503,-0.1506,-0.1511,-0.1547,-0.154,-0.1538,-0.1577,-0.1548,-0.155,-0.1601,-0.1607,-0.1612,-0.1619,-0.1528,0,0,0,0,0,-0.1331,-0.1354,-0.1379,-0.1403,-0.1419,-0.1443,-0.1463,-0.1478,-0.1498,-0.1512,-0.1531,-0.154,-0.155,-0.1567,-0.1574,-0.1609,-0.1581,-0.1625,-0.163,-0.1635,-0.1641,-0.161,-0.1614,-0.1577,-0.1577,-0.1577,0,0,-0.1337,-0.1355,-0.1369,-0.1405,-0.1428,-0.1462,-0.1456,-0.1494,-0.1526,-0.1513,-0.1567,-0.1567,-0.156,-0.1592,-0.1607,-0.1597,-0.1631,-0.1635,-0.164,-0.1643,-0.1611,-0.1615,-0.1618,-0.1577,-0.1577,-0.1577,0,0,-0.1354,-0.1379,-0.1403,-0.1431,-0.1471,-0.149,-0.1506,-0.1542,-0.1566,-0.1609,-0.16,-0.1616,-0.1645,-0.1645,-0.1645,-0.1682,-0.1656,-0.1683,-0.1727,-0.1698,-0.1701,-0.1703,-0.1679,-0.1679,-0.1689,-0.169,-0.169,0,-0.1362,-0.1391,-0.1416,-0.1448,-0.1474,-0.1506,-0.1539,-0.1573,-0.1616,-0.1631,-0.1635,-0.1658,-0.1667,-0.1685,-0.1703,-0.1698,-0.1674,-0.1711,-0.1706,-0.1708,-0.1709,-0.1684,-0.1682,-0.1693,-0.1693,-0.1692,-0.1692,0,-0.139,-0.1425,-0.1444,-0.1493,-0.1529,-0.1564,-0.1608,-0.1651,-0.1679,-0.1696,-0.1729,-0.1734,-0.174,-0.1749,-0.1748,-0.1762,-0.1741,-0.1715,-0.1697,-0.1718,-0.1689,-0.1687,-0.1699,-0.1697,-0.1696,-0.1695,0,0,-0.1372,-0.1447,-0.1456,-0.1481,-0.1554,-0.1578,-0.1646,-0.1695,-0.1715,-0.1766,-0.178,-0.1819,-0.1814,-0.1812,-0.1807,-0.18,-0.1803,-0.1776,-0.1773,-0.1763,-0.1743,-0.1618,-0.1602,-0.1778,-0.1777,-0.1777,-0.1722,0,-0.1384,-0.144,-0.1482,-0.1541,-0.1571,-0.1627,-0.1676,-0.1727,-0.1761,-0.1786,-0.1804,-0.1811,-0.1839,-0.1833,-0.1842,-0.1806,-0.1798,-0.1821,-0.1714,-0.1711,-0.1605,-0.1595,-0.1777,-0.172,-0.1719,-0.1719,-0.1719,0,-0.1391,-0.1426,-0.1485,-0.1547,-0.1565,-0.1611,-0.1674,-0.172,-0.177,-0.1789,-0.1818,-0.1819,-0.1846,-0.1838,-0.1826,-0.1839,-0.1806,-0.1777,-0.1773,-0.1626,-0.1579,-0.169,-0.1713,-0.1713,-0.1714,-0.1714,-0.1714,0,-0.1345,-0.1423,-0.1465,-0.1493,-0.1576,-0.1613,-0.1657,-0.1718,-0.1733,-0.1781,-0.1774,-0.1815,-0.181,-0.1799,-0.1785,-0.1798,-0.1737,-0.1733,-0.1589,-0.158,-0.1679,-0.1677,-0.1698,-0.1698,-0.1698,-0.1698,-0.1698,0,-0.1325,-0.1359,-0.1448,-0.147,-0.1506,-0.158,-0.1611,-0.1661,-0.1696,-0.1694,-0.1763,-0.1751,-0.1798,-0.1778,-0.1769,-0.1671,-0.1724,-0.1589,-0.155,-0.1713,-0.1715,-0.1678,-0.1676,-0.1696,-0.1697,-0.1697,-0.1697,0,-0.1265,-0.1331,-0.1375,-0.1462,-0.1487,-0.1511,-0.157,-0.1576,-0.1631,-0.1626,-0.1634,-0.1691,-0.167,-0.1686,-0.1652,-0.1614,-0.1547,-0.1493,-0.1671,-0.1644,-0.1419,-0.1422,-0.1324,-0.1319,-0.1314,-0.1311,-0.1308,0,-0.1235,-0.1258,-0.1348,-0.1366,-0.1408,-0.1452,-0.147,-0.1535,-0.1531,-0.1576,-0.1551,-0.1556,-0.1582,-0.1443,-0.1487,-0.1429,-0.1411,-0.1377,-0.1405,-0.1404,-0.1377,-0.1387,-0.1396,-0.1301,-0.13,-0.1299,-0.1298,0,-0.117,-0.1217,-0.1251,-0.1287,-0.1317,-0.1333,-0.1364,-0.1341,-0.1404,-0.1459,-0.1418,-0.1396,-0.136,-0.1356,-0.1306,-0.1277,-0.1406,-0.1333,-0.1342,-0.1368,-0.1376,-0.1355,-0.1369,-0.1283,-0.1285,-0.1286,-0.1287,0,-0.1115,-0.1119,-0.117,-0.1187,-0.1223,-0.1207,-0.1235,-0.1225,-0.1225,-0.1279,-0.1269,-0.1291,-0.1348,-0.1273,-0.1239,-0.1186,-0.1171,-0.1145,-0.1164,-0.1181,-0.1158,-0.1149,-0.0941,0,0,0,0,0,-0.1049,-0.1045,-0.1061,-0.1073,-0.1105,-0.112,-0.1159,-0.1188,-0.1244,-0.1172,-0.1211,-0.1176,-0.1125,-0.1148,-0.1059,-0.1163,-0.1174,-0.1055,-0.1156,-0.1201,-0.1218,-0.1204,0,0,0,0,0,0,-0.1003,-0.1022,-0.1026,-0.0975,-0.0962,-0.0972,-0.0995,-0.1036,-0.1,-0.1071,-0.1046,-0.11,-0.1065,-0.1149,-0.1035,-0.1035,-0.1072,-0.1071,-0.1068,-0.1191,-0.1206,-0.122,-0.1212,0,0,0,0,0]},{"header":{"parameterUnit":"m.s-1","parameterCategory":2,"la1":30.2991,"la2":30.254,"lo1":-89.0895,"lo2":-89.0444,"dy":0.0017,"dx":0.0017,"nx":28,"ny":28,"refTime":"2025-03-17T03:00:00:Z","depth":"4","parameterNumber":3,"parameterNumberName":"V-component_of_CURRENTS"},"data":[0,0,0,0,0,0,0,0,0,0,0,0,0,0,0,0,0,0,0,0,0,0,0,0,0,0,0,0,0,0,0,0,0,0,0,0,0,0,0,0,0,0,0,0,0,0,0,0,0,0,0,0,0,0,0,0,0,0,-0.0119,-0.0119,0,-0.0086,-0.0086,-0.0085,-0.0061,-0.0061,-0.0061,-0.0061,0.0006,0.0008,0.001,0,0,0,0,0,0,0,0,0,0,0,0,0,-0.0116,-0.0117,-0.0119,-0.0119,-0.0119,-0.0086,-0.0086,-0.0085,-0.0061,-0.0061,-0.0061,-0.0061,0.0006,0.0008,0.001,0,0,0,0,0,0,0,0,0,0,0,0,0,-0.0103,-0.0117,-0.0119,-0.0104,-0.0102,-0.0086,-0.0086,-0.0085,-0.0061,-0.0061,-0.0061,-0.0061,0.0005,0.0008,0.001,0.0023,0,0,0.0018,0.0019,0,0,0,0,0,0,0,0,-0.0104,-0.0103,-0.0106,-0.0105,-0.0103,-0.0078,-0.006,-0.0048,-0.0061,-0.0076,-0.0061,-0.0061,-0.002,-0.0015,-0.0008,0.0026,0.0029,0.0018,0.002,0.0021,0.0022,0,0,0,0,0,0,0,-0.0105,-0.0104,-0.0105,-0.0106,-0.0104,-0.0082,-0.0081,-0.0057,-0.0047,-0.0074,-0.0073,-0.0071,-0.0018,-0.0011,-0.0006,0.003,0.0018,0.002,0.0022,0.0023,0.009,0.009,0,0,0,0,0,0,-0.0114,-0.0105,-0.0106,-0.0104,-0.0104,-0.0083,-0.0081,-0.0086,-0.0048,-0.0043,-0.0071,-0.007,-0.0015,-0.0009,-0.0004,0.0013,0.0021,0.0023,0.0025,0.009,0.009,0.009,0,0,0,0,0,0,-0.0114,-0.0114,-0.0108,-0.0104,-0.0102,-0.0084,-0.0089,-0.0085,-0.0081,-0.0046,-0.004,-0.0072,-0.0015,-0.0007,0.002,0.0016,0.0024,0.0027,0.0089,0.009,0.009,0.0048,0,0,0,0,0,0,-0.0114,-0.0115,-0.0122,-0.0105,-0.0103,-0.0106,-0.0089,-0.0085,-0.008,-0.0079,-0.0045,-0.0038,-0.0014,0.0016,0.0023,0.002,0.0029,0.0089,0.009,0.009,0.0049,0.0046,0.0045,0,0,0,0,0,-0.0114,-0.013,-0.0122,-0.0122,-0.0113,-0.0107,-0.0104,-0.0089,-0.0081,-0.0084,-0.0053,-0.0039,0.0024,0.0019,0.0026,0.0024,0.0089,0.0089,0.009,0.005,0.0047,0.0045,0,0,0,0,0,0,-0.0137,-0.0128,-0.012,-0.0133,-0.0123,-0.0103,-0.0106,-0.0094,-0.0073,-0.0071,-0.0034,-0.0026,-0.0002,0.0018,0.0012,0.0046,0.0058,0.006,0.0025,0.0022,0.002,-0.0003,0.0031,0,0,0,0,0,-0.0145,-0.0152,-0.0137,-0.0148,-0.0145,-0.0126,-0.0121,-0.0112,-0.0091,-0.0083,-0.0056,-0.0024,0.0006,0.002,0.0048,0.0065,0.0094,0.0069,0.0067,0.0065,0.0052,0.0107,0.0109,0.0092,0.0092,0.0092,0,0,-0.0158,-0.0153,-0.0158,-0.0153,-0.0144,-0.0153,-0.0123,-0.0124,-0.0127,-0.0078,-0.0071,-0.0031,0.0011,0.0032,0.0044,0.0048,0.0086,0.0066,0.0063,0.0052,0.0108,0.0109,0.0111,0.0092,0.0092,0.0092,0,0,-0.019,-0.0183,-0.02,-0.0195,-0.0187,-0.0175,-0.0178,-0.016,-0.0147,-0.0131,-0.0092,-0.0053,-0.0018,0.0017,0.0038,0.0042,0.0075,0.0049,0.0017,0.0071,0.0073,0.0074,0.0114,0.0119,0.0046,0.0046,0.0046,0,-0.0207,-0.0226,-0.0203,-0.0219,-0.0225,-0.019,-0.0214,-0.0195,-0.0168,-0.0155,-0.0138,-0.0063,-0.0026,0.0011,0.0013,0.0036,0.0067,0.0022,0.0067,0.007,0.0072,0.0113,0.0119,0.0044,0.0044,0.0044,0.0044,0,-0.0249,-0.0266,-0.0277,-0.0287,-0.0288,-0.0301,-0.0278,-0.027,-0.0247,-0.0218,-0.0174,-0.0111,-0.007,-0.0044,-0.0016,0.002,0.0036,0.006,0.007,0.0071,0.0114,0.0121,0.0041,0.0042,0.0042,0.0043,0,0,-0.0288,-0.0305,-0.0311,-0.033,-0.0327,-0.0335,-0.0339,-0.0327,-0.0324,-0.0273,-0.0255,-0.0184,-0.014,-0.0113,-0.0059,-0.0009,0.0042,0.0024,0.0028,0.0056,0.015,0.0133,0.014,0.0075,0.0076,0.0077,0.0173,0,-0.0331,-0.0378,-0.0374,-0.0422,-0.0444,-0.0423,-0.0432,-0.0412,-0.0374,-0.0343,-0.0258,-0.0216,-0.0168,-0.0141,-0.0085,0.0015,0.006,0.0012,0.0151,0.0154,0.0133,0.0147,0.008,0.0179,0.018,0.0182,0.0183,0,-0.0375,-0.0401,-0.0457,-0.0491,-0.05,-0.0524,-0.053,-0.053,-0.0471,-0.0437,-0.0374,-0.03,-0.0215,-0.0173,-0.0019,-0.0052,0.0033,0.0112,0.0118,0.0118,0.0151,0.0179,0.0197,0.0196,0.0195,0.0194,0.0193,0,-0.0412,-0.046,-0.0509,-0.0521,-0.0551,-0.0576,-0.059,-0.0559,-0.0553,-0.049,-0.0463,-0.0354,-0.0285,-0.017,-0.0009,-0.0013,0.0166,0.0183,0.0245,0.0245,0.0251,0.0248,0.028,0.028,0.0279,0.0279,0.0279,0,-0.0455,-0.0496,-0.0534,-0.0562,-0.0623,-0.0626,-0.0664,-0.0657,-0.0626,-0.0599,-0.0514,-0.045,-0.0278,-0.0147,-0.0023,0.0135,0.0156,0.0236,0.0269,0.0231,0.0225,0.0256,0.0252,0.0283,0.0282,0.0281,0.0281,0,-0.0485,-0.051,-0.057,-0.0621,-0.0643,-0.0685,-0.0725,-0.0735,-0.0708,-0.0669,-0.0648,-0.0506,-0.0335,-0.0169,0.0044,0.0121,0.027,0.0319,0.0258,0.0287,0.0314,0.0307,0.0385,0.0385,0.0386,0.0386,0.0386,0,-0.0501,-0.0536,-0.0613,-0.0653,-0.0683,-0.0741,-0.0774,-0.0778,-0.0771,-0.0684,-0.0654,-0.0494,-0.038,-0.0092,0.0065,0.0277,0.0307,0.036,0.0335,0.03,0.0325,0.0318,0.0311,0.0386,0.0386,0.0386,0.0386,0,-0.053,-0.056,-0.0608,-0.069,-0.0745,-0.0799,-0.0837,-0.0833,-0.0803,-0.0781,-0.0625,-0.0472,-0.028,-0.007,0.009,0.0244,0.0309,0.0362,0.0362,0.034,0.0302,0.0325,0.0318,0.0387,0.0387,0.0387,0.0387,0,-0.0542,-0.0585,-0.0648,-0.0717,-0.0788,-0.0826,-0.0847,-0.0815,-0.0802,-0.0696,-0.0632,-0.0429,-0.0301,-0.0085,0.007,0.0206,0.0233,0.0257,0.0264,0.0264,0.0193,0.0125,0.0182,0,0,0,0,0,-0.0539,-0.0592,-0.0667,-0.0742,-0.081,-0.0844,-0.0872,-0.0872,-0.0832,-0.0721,-0.0675,-0.0488,-0.0235,-0.0119,0.0019,0.0044,0.0229,0.0202,0.0252,0.039,0.0389,0.0323,0,0,0,0,0,0,-0.0538,-0.0612,-0.0664,-0.0743,-0.0792,-0.0856,-0.0869,-0.0842,-0.0772,-0.0703,-0.0556,-0.048,-0.0229,-0.0303,0.0019,0.0058,0.01,0.0322,0.0324,0.039,0.039,0.0389,0.032,0,0,0,0,0]}]]